Flag for Germany Weather past 2 weeks in Landshut, Bavaria, Germany

Now
55 °F

Cool.


Feels Like: 55 °F
Forecast: 47 / 63 °F
Wind: 2 mph from South

Location: Erding Airport

Current Time: Oct 2, 2014 at 7:03:03 AM

Latest Report: Oct 2, 2014 at 6:20 AM


Visibility: 0 mi

Pressure: 30.36 "Hg

Humidity: 100%

Dew point: 55 °F

Location of LandshutLocation

Historic Weather in Landshut — Graph

°F

Landshut temperature yesterday

Maximum temperature yesterday: 64 °F (at 2:20 PM)
Minimum temperature yesterday: 57 °F (at 3:20 AM)
Average temperature yesterday: 60 °F

Past Weeks' High & Low Weather Summary

 TemperatureHumidityPressure
High77 °F (Sep 19, 3:20 PM)100% (Sep 17, 5:20 AM)30.39 "Hg (Sep 17, 5:20 AM)
Low36 °F (Sep 24, 7:20 AM)51% (Sep 23, 3:20 PM)29.89 "Hg (Sep 24, 4:20 PM)
Average57 °F88%30.15 "Hg
* Reported Sep 17 5:20 AM — Oct 2 5:20 AM, Landshut, Weather by CustomWeather, © 2014

Note: Actual official high and low records may vary slightly from our data, if they occured in-between our weather recording intervals... More about our weather records

Advertising

Landshut weather history for previous 24 hours

 ConditionsComfort  
Time TempWeatherWind HumidityBarometerVisibility
5:20 AM
Oct 2
55 °FCool.2 mph100%30.36 "Hg0 mi
4:20 AM55 °FCool.1 mph100%30.36 "Hg1 mi
3:20 AM55 °FCool.2 mph100%30.36 "Hg1 mi
2:20 AM55 °FCool.2 mph100%30.36 "Hg0 mi
1:20 AM55 °FCool.2 mph100%30.36 "Hg1 mi
12:20 AM54 °FCool.1 mph100%30.36 "Hg0 mi
11:20 PM
Oct 1
57 °FCool.2 mph100%30.36 "Hg0 mi
10:20 PM57 °FCool.2 mph100%30.33 "Hg0 mi
9:20 PM57 °FCool.5 mph100%30.33 "Hg1 mi
8:20 PM59 °FCool.1 mph100%30.33 "Hg1 mi
7:20 PM61 °FCool.3 mph100%30.30 "Hg2 mi
6:20 PM63 °FMild.2 mph94%30.30 "Hg2 mi
5:20 PM63 °FMild.2 mph88%30.30 "Hg2 mi
4:20 PM64 °FMild.2 mph83%30.30 "Hg3 mi
3:20 PM63 °FMild.3 mph88%30.30 "Hg2 mi
2:20 PM64 °FMild.2 mph83%30.30 "Hg2 mi
1:20 PM63 °FMild.2 mph88%30.30 "Hg2 mi
12:20 PM61 °FCool.3 mph94%30.30 "Hg2 mi
11:20 AM61 °FCool.3 mph94%30.30 "Hg2 mi
10:20 AM61 °FCool.3 mph94%30.30 "Hg2 mi
9:20 AM59 °FCool.2 mph100%30.30 "Hg1 mi
8:20 AM57 °FCool.2 mph100%30.30 "Hg1 mi
7:20 AM57 °FCool.2 mph100%30.30 "Hg1 mi
Weather by CustomWeather, © 2014

See weather overviewHow to use our weather pages